Погода Мыс Лопатка

Погода Мыс Лопатка : погода сейчас, прогноз погоды и архив. Всё, что Вы хотите узнать о погоде Мыс Лопатка!

Поиск расширенной информации на нашем сайте:

Другие новости

Новости СМИ2

Главная страница сайта

Новости сайта

02.10.2013

Напоминаем, что на нашем новом сайте вы можете получить высокодетализированные прогнозы погоды по пунктам России, СНГ и мира (включающие важные для авиации метеовеличины, такие как направление и скорость ветра, видимость, явления погоды, количество и форма облачности, нижняя и верхняя граница облачности), а также ознакомиться с разнообразными материалами по авиационной метеорологии и подборкой полезных ссылок на эту тему.

Сайт Метеоцентр.Азия посвящён разработке технологий оптимизации авиаметеорологического обслуживания, включая проектирование и перспективное создание нескольких автоматизированных авиаметеорологических систем:
- система выпуска высокодетальных прогностических карт явлений погоды для нижнего воздушного пространства по России и ближнему зарубежью;
- система верификации прогнозов TAF (выпускаемых синоптиками официальных АМСГ РФ и ближнего зарубежья) и AUTOTAF (выпускаемых сайтом Метеоцентр.Азия) - выявление ошибок, онлайн-сопоставление с фактической погодой METAR, автоматическое внесение коррективов в прогнозы при резком отклонении фактической погоды от прогноза, подсчёт оправдываемости прогнозов по элементам и в целом;
- система обработки, анализа и отображения авиаметеорологической информации для применения провайдерами метеорологической информации.


Погода Мыс Лопатка - сегодня

Время (UTC), дата Ветер
(°,м/с) 
Видим.   Явления Облачность Т
(°С)
Тd
(°С)
f(%) Тe
(°С)
Pmin
(гПа)
dP
(гПа)
Po
(мм)
O2
(г/м3)
Тmin Tmax R s Состояние
почвы
06 25.04.17 320 (СЗ) 13-15{16}  20000 м    9/9 600 м 
[Sc]
+0.6 -2.4 80 -5  1014.7  -0.3  756  304           
09 25.04.17 320 (СЗ) 13-17{18}  20000 м    9/9 600 м 
[Sc]
+0.4 -1.6 86 -5  1014.6  -0.1  756  304    +1.1       
12 25.04.17 320 (СЗ) 12-15{18}  20000 м    9/9 600 м 
[Sc]
+0.2 -2.4 83 -5  1014.8  0.2  756  305           
15 25.04.17 320 (СЗ) 14-17{19}  20000 м    9/9 600 м 
[Sc]
+0.1 -1.7 88 -6  1014  -0.8  756  305           
18 25.04.17 320 (СЗ) 13-16{17}  20000 м    9/9 600 м 
[Sc]
+0.6 -0.8 90 -5  1014.1  0.1  756  304           
21 25.04.17 320 (СЗ) 13-15{17}  20000 м    9/9 600 м 
[Sc]
+0.6 -1.7 85 -5  1013.8  -0.3  756  304  -0.2         
00 26.04.17 290 (З) 12-15{17}  20000 м    9/9 600 м 
[Sc]
+1.2 -0.6 88 -4  1013.1  -0.7  755  303           
03 26.04.17 290 (З) 12-15{17}  20000 м    8/8 600 м 
[Sc]
+0.5 -1.1 89 -5  1012.2  -0.9  754  304           
06 26.04.17 290 (З) 10-12{15}  20000 м    9/9 600 м 
[Sc]
+0 -1.7 88 -5  1011.7  -0.5  754  304           
09 26.04.17 320 (СЗ) 6{12}  20000 м    10/10 600 м 
[Sc]
-0.7 -1.9 92 -4  1010.7  -0.9  753  305    +1.4       
12 26.04.17 тихо ()   20000 м    10/10 600 м 
[Sc]
-1 -2.2 92 -1  1009.9  -0.8  753  305           
15 26.04.17 180 (Ю) 20000 м    10/10 600 м 
[Sc]
+0 -1.6 89 -2  1008.3  -1.6  752  303           
18 26.04.17 160 (Ю) 4000 м  слаб. ливневой снег  10/10 300 м кучево-дожд. 
[Cb cap]
-0.1 -0.8 95 -4  1006.7  -1.6  750  303           
21 26.04.17 140 (ЮВ) 4000 м  слаб. снег{ливн. осадки}  10/10 200 м 
[Frnb|Ns]
+0.4 +0.1 98 -3  1005.6  -1.1  749  302  -1.2    0.1  <0.5  равномерный
мокрый или
старый снег
100% 
00 27.04.17 110 (В) 9-11{11}  0500 м    ?/?  
[Cu hum|Ac cast|Cs]
+1 +0.9 99 -3  1004.1  -1.5  748  300           
03 27.04.17 090 (В) 11-15{15}  4000 м  дымка{морось, туман}  10/10 200 м 
[St]
+1 +0.9 99 -4  1002  -2.1  747  300           
06 27.04.17 090 (В) 14-18{18}  4000 м  дымка{морось, туман}  10/10 200 м 
[St]
+0.7 +0.5 99 -5  999.3  -2.6  745  299           
09 27.04.17 070 (В) 15-20{20}  20000 м  в посл. час морось  10/10 300 м 
[St]
+0.6 +0.3 98 -5  995.8  -3.5  742  298    +1.1       
12 27.04.17 070 (В) 11-16{22}  20000 м  {морось}  10/10 300 м 
[St]
+0.7 -0.4 92 -4  991.3  -4.5  739  297           
15 27.04.17 290 (З) 7-10{16}  4000 м  слаб. ливневой снег  10/10 300 м кучево-дожд. 
[Cb cap]
+0.4 -0.3 95 -3  987.4  -3.9  736  296           
18 27.04.17 320 (СЗ) 14-17{17}  20000 м  {ливн. осадки}  9/1 600 м средняя 
[Sc|Ac As]
+0.1 -0.6 95 -6  983.2  -4.2  733  295           
21 27.04.17 320 (СЗ) 13-16{19}  20000 м    8/8 600 м средняя 
[Sc|Ac trans]
+0.7 -0.3 93 -5  981.5  -1.7  731  294  -0.1    0.3     
00 28.04.17 290 (З) 15-18{18}  20000 м    10/10 300 м 
[Sc]
+0.7 -0.7 90 -5  981.3  -0.2  731  294           
03 28.04.17 270 (З) 13-16{18}  20000 м  {ливн. осадки}  9/9 300 м 
[Sc]
+1.2 -0.3 90 -4  980.9  -0.3  731  293           
06 28.04.17 290 (З) 13-16{20}  4000 м  слаб. ливневой снег  10/10 300 м кучево-дожд. 
[Cb cap]
+0.1 -0.3 97 -6  980.4  -0.5  731  294           
Время (UTC), дата Ветер
(°,м/с) 
Видим.   Явления Облачность Т
(°С)
Тd
(°С)
f(%) Тe
(°С)
Pmin
(гПа)
dP
(гПа)
Po
(мм)
O2
(г/м3)
Тmin Tmax R s Состояние
почвы

Для получения пояснительной информации подведите курсор к названию столбца.

ПОГОДА Мыс Лопатка - архив

Всё, что Вы хотите узнать о погоде Мыс Лопатка - удобно и подробно!

Выберите нужную дату (начиная с 1 января 2015* года) и нажмите кнопку "Найти".
Будут отображены архивные сводки погоды по пункту Мыс Лопатка, начиная с указанной даты.


Отображать данные в формате CSV (для использования в таблицах Excel)


Внимание! Наш архив погоды предназначен исключительно для личного некоммерческого использования в познавательных целях. Если Вам необходимы официальные справки о состоянии погоды (для производственных, юридических, коммерческих и т.п. целей), обращайтесь в органы Росгидромета.

*Примечание: данная дата относится к архиву по метеостанциям СССР (Россия, СНГ, Балтия).
Архив по метеостанциям Зарубежной Европы и Азии (кроме Китая) хранится 10 дней, по другим регионам земного шара (Китай, Африка, Америка, Австралия, Океания) - 1 день.

Мыс Лопатка - район местоположения метеостанции


Название, широта, долгота, высота метеостанции:
Мыс Лопатка 50.9°ш. 156.7°д. 48 м над ур. моря [Российская Федерация]

Дополнительная информация

В oтличие oт бoльшинства пoгoдных сайтoв мы публикуем пoдрoбную метеoинфoрмацию в детальнoм прoфессиoнальнoм фoрмате.

Характеристики температуры и влажнoсти вoздуха измеряются на высoте 2 м в тени вдали oт зданий и деревьев.
Скoрoсть ветра измеряется на высoте 10 м (на урoвне рoста челoвека скoрoсть ветра ниже в 1.5-2 раза). Если метеoстанция нахoдится в гoрoде или в лесу, тo скoрoсть ветра занижена на 2-4 м/с пo сравнению с oткрытым местoм. Скoрoсть ветра над акватoриями крупных рек и oзёр, а также на вершинах хoлмoв на 2-5 м/с выше, чем в oбычных услoвиях.
Атмoсфернoе давление в разных тoчках местнoсти мoжет значительнo oтличаться oт давления на метеoстанции, в зависимoсти oт услoвий рельефа (при пoдъёме на 10 м давление пoнижается примернo на 1 мм рт.ст.).